| time (UTC) | temp F | wind direction | speed MPH | gust MPH | rain 1hr in | rain 24hr in | rain mn in | humidity % | barometer mb |
| 20260507040019 | 43 | 23 | 1.0 | 4.0 | 0.00 | 0.30 | 0.04 | 98 | 1011.6 |
| 20260507035018 | 43 | 0.0 | 2.0 | 0.00 | 0.30 | 0.04 | 98 | 1011.6 | |
| 20260507034018 | 43 | 0.0 | 2.0 | 0.01 | 0.30 | 0.04 | 98 | 1011.5 | |
| 20260507033018 | 43 | 338 | 1.0 | 4.0 | 0.01 | 0.31 | 0.04 | 98 | 1011.5 |
| 20260507032019 | 43 | 0.0 | 2.0 | 0.01 | 0.31 | 0.04 | 98 | 1011.5 | |
| 20260507031018 | 43 | 338 | 1.0 | 3.0 | 0.01 | 0.31 | 0.04 | 98 | 1011.4 |
| 20260507030018 | 43 | 338 | 1.0 | 4.0 | 0.02 | 0.32 | 0.04 | 98 | 1011.2 |
| 20260507025018 | 43 | 0 | 1.0 | 4.0 | 0.02 | 0.32 | 0.04 | 98 | 1011.2 |
| 20260507024019 | 43 | 0 | 1.0 | 3.0 | 0.01 | 0.32 | 0.03 | 98 | 1011.1 |
| 20260507023018 | 43 | 0 | 1.0 | 4.0 | 0.01 | 0.33 | 0.03 | 98 | 1011.2 |
| 20260507022018 | 43 | 68 | 2.0 | 5.0 | 0.02 | 0.33 | 0.03 | 98 | 1011.1 |
| 20260507021018 | 43 | 0 | 1.0 | 4.0 | 0.02 | 0.34 | 0.03 | 98 | 1011.0 |
| 20260507020018 | 43 | 0 | 1.0 | 5.0 | 0.01 | 0.33 | 0.02 | 98 | 1010.8 |
| 20260507015018 | 43 | 0 | 1.0 | 4.0 | 0.02 | 0.34 | 0.02 | 98 | 1010.8 |
| 20260507014018 | 43 | 0.0 | 3.0 | 0.02 | 0.35 | 0.02 | 98 | 1010.9 | |
| 20260507013018 | 43 | 23 | 2.0 | 4.0 | 0.02 | 0.35 | 0.02 | 98 | 1010.8 |
| 20260507012018 | 43 | 68 | 3.0 | 9.0 | 0.01 | 0.35 | 0.02 | 98 | 1010.6 |
| 20260507011018 | 43 | 68 | 3.0 | 10.0 | 0.01 | 0.35 | 0.02 | 98 | 1010.5 |
| 20260507010018 | 43 | 68 | 2.0 | 4.0 | 0.01 | 0.35 | 0.02 | 98 | 1010.5 |
| 20260507005018 | 43 | 23 | 2.0 | 4.0 | 0.00 | 0.35 | 0.01 | 98 | 1010.5 |
| 20260507004018 | 43 | 45 | 1.0 | 4.0 | 0.00 | 0.36 | 0.01 | 98 | 1010.3 |
| 20260507003018 | 43 | 45 | 3.0 | 8.0 | 0.00 | 0.37 | 0.01 | 98 | 1010.2 |
| 20260507002020 | 43 | 338 | 2.0 | 5.0 | 0.00 | 0.38 | 0.01 | 98 | 1010.2 |
| 20260507001020 | 43 | 338 | 2.0 | 9.0 | 0.01 | 0.39 | 0.01 | 98 | 1010.1 |
| 20260507000018 | 43 | 23 | 2.0 | 6.0 | 0.01 | 0.39 | 0.01 | 98 | 1010.1 |
| 20260506235018 | 43 | 0 | 3.0 | 9.0 | 0.01 | 0.41 | 0.01 | 98 | 1010.2 |
| 20260506234020 | 44 | 23 | 1.0 | 3.0 | 0.01 | 0.42 | 0.01 | 98 | 1010.3 |
| 20260506233020 | 44 | 45 | 2.0 | 5.0 | 0.01 | 0.43 | 0.01 | 98 | 1010.1 |
| 20260506232018 | 44 | 68 | 1.0 | 4.0 | 0.01 | 0.44 | 0.01 | 98 | 1010.2 |
| 20260506231020 | 44 | 68 | 2.0 | 6.0 | 0.00 | 0.45 | 0.00 | 98 | 1010.0 |
| 20260506230020 | 44 | 23 | 2.0 | 5.0 | 0.00 | 0.46 | 0.00 | 98 | 1010.2 |
| 20260506225018 | 44 | 45 | 1.0 | 3.0 | 0.00 | 0.47 | 0.00 | 98 | 1010.1 |
| 20260506224018 | 43 | 0 | 2.0 | 6.0 | 0.00 | 0.48 | 0.00 | 98 | 1010.0 |
| 20260506223020 | 43 | 90 | 2.0 | 4.0 | 0.01 | 0.50 | 0.00 | 98 | 1009.8 |
| 20260506222020 | 43 | 45 | 1.0 | 4.0 | 0.01 | 0.50 | 0.00 | 98 | 1009.9 |
| 20260506221020 | 43 | 23 | 2.0 | 5.0 | 0.01 | 0.52 | 0.00 | 98 | 1009.8 |
| 20260506220020 | 43 | 45 | 2.0 | 8.0 | 0.02 | 0.53 | 0.53 | 98 | 1009.8 |
| 20260506215018 | 43 | 45 | 3.0 | 8.0 | 0.02 | 0.54 | 0.53 | 98 | 1009.8 |
| 20260506214019 | 43 | 68 | 2.0 | 6.0 | 0.02 | 0.54 | 0.53 | 98 | 1009.7 |
| 20260506213019 | 43 | 23 | 2.0 | 5.0 | 0.01 | 0.55 | 0.52 | 98 | 1009.7 |
| 20260506212019 | 43 | 45 | 2.0 | 5.0 | 0.01 | 0.56 | 0.52 | 98 | 1009.6 |
| 20260506211018 | 43 | 23 | 3.0 | 7.0 | 0.01 | 0.57 | 0.52 | 98 | 1009.6 |
| 20260506210018 | 43 | 23 | 2.0 | 5.0 | 0.00 | 0.57 | 0.51 | 98 | 1009.6 |
| 20260506205019 | 44 | 23 | 2.0 | 5.0 | 0.00 | 0.58 | 0.51 | 98 | 1009.4 |
| 20260506204018 | 44 | 23 | 2.0 | 7.0 | 0.01 | 0.60 | 0.51 | 98 | 1009.4 |
| 20260506203018 | 44 | 0 | 2.0 | 5.0 | 0.01 | 0.61 | 0.51 | 98 | 1009.3 |
| 20260506202018 | 44 | 23 | 2.0 | 5.0 | 0.01 | 0.62 | 0.51 | 98 | 1009.2 |
| 20260506201018 | 44 | 0 | 2.0 | 6.0 | 0.01 | 0.67 | 0.51 | 98 | 1009.3 |
| 20260506200018 | 44 | 45 | 2.0 | 4.0 | 0.01 | 0.69 | 0.51 | 98 | 1009.2 |
| 20260506195018 | 44 | 45 | 2.0 | 6.0 | 0.01 | 0.70 | 0.51 | 98 | 1009.1 |
| 20260506194018 | 44 | 0 | 3.0 | 9.0 | 0.00 | 0.69 | 0.50 | 98 | 1009.0 |
| 20260506193018 | 44 | 23 | 2.0 | 5.0 | 0.00 | 0.70 | 0.50 | 98 | 1009.0 |
| 20260506192018 | 44 | 45 | 2.0 | 5.0 | 0.01 | 0.71 | 0.50 | 98 | 1008.9 |
| 20260506191018 | 44 | 23 | 2.0 | 7.0 | 0.01 | 0.72 | 0.50 | 98 | 1008.7 |
| 20260506190019 | 44 | 23 | 2.0 | 8.0 | 0.01 | 0.72 | 0.50 | 98 | 1008.5 |
| 20260506185021 | 45 | 45 | 2.0 | 5.0 | 0.02 | 0.72 | 0.50 | 98 | 1008.4 |
| 20260506184018 | 44 | 45 | 3.0 | 8.0 | 0.02 | 0.73 | 0.50 | 98 | 1008.3 |
| 20260506183018 | 45 | 45 | 2.0 | 8.0 | 0.02 | 0.73 | 0.50 | 98 | 1008.2 |
| 20260506182018 | 45 | 45 | 2.0 | 6.0 | 0.01 | 0.73 | 0.50 | 98 | 1008.2 |
| 20260506181020 | 45 | 23 | 3.0 | 5.0 | 0.01 | 0.73 | 0.50 | 98 | 1008.2 |
| 20260506180020 | 45 | 45 | 2.0 | 5.0 | 0.01 | 0.73 | 0.50 | 98 | 1008.1 |
| 20260506175020 | 45 | 45 | 2.0 | 5.0 | 0.00 | 0.73 | 0.49 | 98 | 1008.0 |
| 20260506174018 | 45 | 23 | 2.0 | 5.0 | 0.00 | 0.73 | 0.49 | 98 | 1007.9 |
| 20260506173018 | 45 | 23 | 2.0 | 4.0 | 0.00 | 0.73 | 0.49 | 98 | 1007.9 |
| 20260506172018 | 45 | 45 | 2.0 | 4.0 | 0.00 | 0.73 | 0.49 | 98 | 1007.8 |
| 20260506171020 | 45 | 45 | 2.0 | 7.0 | 0.00 | 0.73 | 0.49 | 98 | 1007.7 |
| 20260506170018 | 45 | 23 | 2.0 | 5.0 | 0.00 | 0.73 | 0.49 | 98 | 1007.6 |
| 20260506165018 | 45 | 23 | 1.0 | 5.0 | 0.00 | 0.73 | 0.49 | 98 | 1007.6 |
| 20260506164020 | 45 | 0 | 1.0 | 4.0 | 0.00 | 0.73 | 0.49 | 98 | 1007.6 |
| 20260506163020 | 45 | 45 | 1.0 | 4.0 | 0.00 | 0.73 | 0.49 | 98 | 1007.6 |
| 20260506162018 | 45 | 23 | 3.0 | 8.0 | 0.00 | 0.73 | 0.49 | 98 | 1007.5 |
| 20260506161020 | 45 | 23 | 3.0 | 8.0 | 0.00 | 0.73 | 0.49 | 98 | 1007.4 |
| 20260506160020 | 45 | 23 | 2.0 | 5.0 | 0.00 | 0.73 | 0.49 | 98 | 1007.3 |
| 20260506155020 | 45 | 45 | 2.0 | 8.0 | 0.00 | 0.73 | 0.49 | 98 | 1007.4 |
| 20260506154020 | 45 | 45 | 1.0 | 3.0 | 0.01 | 0.73 | 0.49 | 98 | 1007.3 |
| 20260506153020 | 45 | 68 | 3.0 | 6.0 | 0.01 | 0.73 | 0.49 | 98 | 1007.2 |
| 20260506152020 | 45 | 68 | 3.0 | 6.0 | 0.01 | 0.73 | 0.49 | 98 | 1007.3 |
| 20260506151020 | 45 | 23 | 3.0 | 6.0 | 0.02 | 0.73 | 0.49 | 98 | 1007.1 |
| 20260506150020 | 45 | 45 | 3.0 | 11.0 | 0.02 | 0.73 | 0.49 | 98 | 1007.1 |
| 20260506145020 | 45 | 45 | 3.0 | 6.0 | 0.02 | 0.73 | 0.49 | 98 | 1007.0 |
| 20260506144020 | 45 | 68 | 3.0 | 9.0 | 0.02 | 0.72 | 0.48 | 98 | 1006.9 |
| 20260506143020 | 45 | 45 | 3.0 | 9.0 | 0.02 | 0.72 | 0.48 | 98 | 1006.9 |
| 20260506142020 | 45 | 45 | 2.0 | 5.0 | 0.02 | 0.72 | 0.48 | 98 | 1006.9 |
| 20260506141019 | 45 | 45 | 3.0 | 8.0 | 0.02 | 0.72 | 0.47 | 98 | 1006.9 |
| 20260506140019 | 45 | 45 | 3.0 | 8.0 | 0.03 | 0.72 | 0.47 | 98 | 1006.8 |
| 20260506135019 | 45 | 45 | 2.0 | 5.0 | 0.04 | 0.72 | 0.47 | 98 | 1006.8 |
| 20260506134020 | 45 | 45 | 2.0 | 7.0 | 0.04 | 0.71 | 0.46 | 98 | 1006.8 |
| 20260506133020 | 45 | 23 | 2.0 | 7.0 | 0.04 | 0.71 | 0.46 | 98 | 1006.7 |
| 20260506132019 | 45 | 23 | 4.0 | 9.0 | 0.04 | 0.70 | 0.46 | 98 | 1006.7 |
| 20260506131019 | 45 | 23 | 2.0 | 6.0 | 0.04 | 0.69 | 0.45 | 98 | 1006.6 |
| 20260506130020 | 45 | 23 | 3.0 | 7.0 | 0.04 | 0.69 | 0.44 | 98 | 1006.5 |
| 20260506125020 | 45 | 45 | 3.0 | 9.0 | 0.04 | 0.68 | 0.43 | 98 | 1006.5 |
| 20260506124019 | 45 | 23 | 3.0 | 6.0 | 0.03 | 0.67 | 0.43 | 98 | 1006.5 |
| 20260506123019 | 45 | 23 | 3.0 | 7.0 | 0.03 | 0.67 | 0.43 | 98 | 1006.4 |
| 20260506122020 | 46 | 23 | 3.0 | 8.0 | 0.02 | 0.66 | 0.42 | 98 | 1006.4 |
| 20260506121020 | 46 | 45 | 2.0 | 7.0 | 0.02 | 0.65 | 0.41 | 98 | 1006.3 |
| 20260506120019 | 46 | 45 | 3.0 | 6.0 | 0.01 | 0.65 | 0.40 | 98 | 1006.1 |
| 20260506115019 | 46 | 45 | 3.0 | 5.0 | 0.00 | 0.64 | 0.39 | 98 | 1006.2 |
| 20260506114020 | 46 | 68 | 2.0 | 6.0 | 0.00 | 0.64 | 0.39 | 98 | 1006.0 |
| 20260506113020 | 46 | 45 | 2.0 | 8.0 | 0.00 | 0.64 | 0.39 | 98 | 1005.9 |
| 20260506112019 | 46 | 45 | 2.0 | 5.0 | 0.00 | 0.64 | 0.39 | 98 | 1005.8 |
| 20260506111019 | 47 | 45 | 2.0 | 6.0 | 0.00 | 0.64 | 0.39 | 98 | 1005.8 |
| 20260506110019 | 47 | 338 | 1.0 | 4.0 | 0.01 | 0.65 | 0.39 | 98 | 1006.0 |
| 20260506105019 | 47 | 45 | 2.0 | 5.0 | 0.01 | 0.65 | 0.39 | 98 | 1005.9 |
| 20260506104019 | 47 | 68 | 2.0 | 4.0 | 0.01 | 0.65 | 0.39 | 98 | 1006.0 |
| 20260506103019 | 47 | 23 | 1.0 | 5.0 | 0.01 | 0.65 | 0.39 | 98 | 1005.7 |
| 20260506102019 | 47 | 338 | 2.0 | 6.0 | 0.01 | 0.65 | 0.39 | 98 | 1005.7 |
| 20260506101019 | 47 | 0 | 1.0 | 5.0 | 0.02 | 0.65 | 0.39 | 98 | 1005.6 |
| 20260506100019 | 47 | 45 | 3.0 | 6.0 | 0.01 | 0.64 | 0.39 | 98 | 1005.6 |
| 20260506095019 | 47 | 45 | 2.0 | 5.0 | 0.01 | 0.64 | 0.39 | 98 | 1005.5 |
| 20260506094019 | 47 | 45 | 2.0 | 4.0 | 0.02 | 0.65 | 0.39 | 98 | 1005.5 |
| 20260506093019 | 47 | 45 | 1.0 | 3.0 | 0.02 | 0.65 | 0.39 | 98 | 1005.3 |
| 20260506092019 | 47 | 45 | 1.0 | 4.0 | 0.02 | 0.65 | 0.39 | 98 | 1005.3 |
| 20260506091019 | 47 | 68 | 1.0 | 4.0 | 0.02 | 0.64 | 0.38 | 98 | 1005.3 |
| 20260506090019 | 47 | 45 | 1.0 | 4.0 | 0.03 | 0.64 | 0.38 | 98 | 1005.1 |
| 20260506085019 | 47 | 68 | 1.0 | 4.0 | 0.04 | 0.64 | 0.38 | 98 | 1005.1 |
| 20260506084019 | 47 | 23 | 1.0 | 4.0 | 0.04 | 0.63 | 0.37 | 98 | 1004.9 |
| 20260506083019 | 47 | 90 | 1.0 | 3.0 | 0.03 | 0.62 | 0.36 | 98 | 1004.8 |
| 20260506082019 | 47 | 90 | 1.0 | 5.0 | 0.03 | 0.62 | 0.36 | 98 | 1004.8 |
| 20260506081019 | 47 | 68 | 2.0 | 5.0 | 0.02 | 0.61 | 0.35 | 98 | 1004.7 |
| 20260506073019 | 47 | 23 | 2.0 | 6.0 | 0.01 | 0.59 | 0.33 | 98 | 1004.7 |
| 20260506072019 | 47 | 45 | 2.0 | 5.0 | 0.02 | 0.59 | 0.33 | 98 | 1004.7 |
| 20260506071019 | 47 | 45 | 2.0 | 4.0 | 0.02 | 0.59 | 0.33 | 98 | 1004.6 |
| 20260506062019 | 47 | 68 | 2.0 | 4.0 | 0.02 | 0.57 | 0.31 | 98 | 1004.4 |
| 20260506061019 | 47 | 23 | 1.0 | 5.0 | 0.02 | 0.57 | 0.31 | 98 | 1004.4 |
| 20260506051019 | 47 | 45 | 2.0 | 5.0 | 0.02 | 0.56 | 0.30 | 98 | 1004.3 |
| 20260506045019 | 47 | 23 | 2.0 | 4.0 | 0.02 | 0.55 | 0.29 | 98 | 1004.3 |
| 20260506044018 | 47 | 68 | 2.0 | 5.0 | 0.02 | 0.54 | 0.28 | 98 | 1004.3 |
| 20260506043019 | 48 | 23 | 2.0 | 5.0 | 0.02 | 0.54 | 0.28 | 98 | 1004.3 |
| 20260506042019 | 48 | 45 | 2.0 | 5.0 | 0.02 | 0.54 | 0.28 | 98 | 1004.3 |
| 20260506041018 | 48 | 45 | 2.0 | 3.0 | 0.02 | 0.54 | 0.28 | 98 | 1004.4 |